Date String (YYYY-MM-DD hh:mm:ss) UTC,Instrument flags,Ambient pressure (hPa),Sample flow (lpm),Bypass flow (lpm),Sample temperature (°C),Ambient temperature (°C),ASC tube jacket temperature (°C),LED temperature (°C),Box temperature (°C),Sample RH (%),Span deviation,Mass concentration (μg/m³),Mass concentration (μg/m³),Mass concentration (μg/m³)
DateTimeUTC,F1_M11,P_M11,Q1_M11,Q2_M11,T1_M11,T2_M11,T3_M11,T4_M11,T5_M11,U1_M11,ZSPAN_M11,X0_M11,X2_M11,X1_M11
2022-01-03 05:00:00,,0828.4,5.01,0.00,24.7,23.8,00.0,33.8,26.4,06.7,0000.0,0000.12,0000.03,0000.01
2022-01-03 05:01:00,,0828.4,4.99,0.00,24.7,23.8,00.0,33.8,26.4,06.7,0000.0,0000.12,0000.03,0000.01
2022-01-03 05:02:00,,0828.4,5.01,0.00,24.7,23.8,00.0,33.8,26.3,06.7,0000.0,0000.12,0000.03,0000.01
2022-01-03 05:03:00,,0828.4,5.00,0.00,24.7,23.8,00.0,33.8,26.3,06.8,0000.0,0000.11,0000.03,0000.01
2022-01-03 05:04:00,,0828.4,5.01,0.00,24.6,23.8,00.0,33.8,26.3,07.0,0000.0,0000.11,0000.03,0000.01
2022-01-03 05:05:00,,0828.5,4.99,0.00,24.6,23.8,00.0,33.7,26.3,07.3,0000.0,0000.11,0000.03,0000.01
2022-01-03 05:06:00,,0828.5,4.99,0.00,24.6,23.8,00.0,33.7,26.3,07.1,0000.0,0000.10,0000.02,0000.00
2022-01-03 05:07:00,,0828.4,5.01,0.00,24.6,23.8,00.0,33.7,26.3,07.1,0000.0,0000.11,0000.02,0000.00
2022-01-03 05:08:00,,0828.3,5.01,0.00,24.6,23.8,00.0,33.7,26.3,07.3,0000.0,0000.04,0000.01,0000.00
2022-01-03 05:09:00,,0828.5,4.99,0.00,24.6,23.8,00.0,33.7,26.3,07.5,0000.0,0000.02,0000.01,0000.00
2022-01-03 05:10:00,,0828.5,5.01,0.00,24.6,23.8,00.0,33.7,26.3,07.3,0000.0,0000.02,0000.01,0000.00
2022-01-03 05:11:00,,0828.4,5.00,0.00,24.6,23.8,00.0,33.7,26.3,07.2,0000.0,0000.02,0000.01,0000.00
2022-01-03 05:12:00,,0828.3,4.99,0.00,24.6,23.8,00.0,33.7,26.3,07.3,0000.0,0000.02,0000.01,0000.00
2022-01-03 05:13:00,,0828.3,5.01,0.00,24.6,23.8,00.0,33.6,26.3,07.8,0000.0,0000.02,0000.01,0000.00
2022-01-03 05:14:00,,0828.3,5.01,0.00,24.6,23.8,00.0,33.6,26.3,08.1,0000.0,0000.02,0000.01,0000.00
2022-01-03 05:15:00,,0828.3,4.99,0.00,24.6,23.8,00.0,33.6,26.3,08.2,0000.0,0000.03,0000.01,0000.00
2022-01-03 05:16:00,,0828.3,5.01,0.00,24.6,23.8,00.0,33.6,26.3,08.0,0000.0,0000.05,0000.02,0000.00
2022-01-03 05:17:00,,0828.3,4.98,0.00,24.6,23.8,00.0,33.6,26.4,07.7,0000.0,0000.14,0000.02,0000.00
2022-01-03 05:18:00,,0828.3,5.01,0.00,24.6,23.8,00.0,33.6,26.4,07.4,0000.0,0000.15,0000.02,0000.00
2022-01-03 05:19:00,,0828.2,5.00,0.00,24.6,23.9,00.0,33.6,26.4,07.5,0000.0,0000.16,0000.03,0000.01
2022-01-03 05:20:00,,0828.2,4.99,0.00,24.6,23.9,00.0,33.6,26.4,08.1,0000.0,0000.16,0000.03,0000.01
2022-01-03 05:21:00,,0828.2,5.01,0.00,24.6,23.8,00.0,33.6,26.4,07.7,0000.0,0000.16,0000.03,0000.01
2022-01-03 05:22:00,,0828.2,4.99,0.00,24.6,23.9,00.0,33.6,26.4,07.5,0000.0,0000.16,0000.03,0000.01
2022-01-03 05:23:00,,0828.0,5.00,0.00,24.6,23.8,00.0,33.6,26.4,07.9,0000.0,0000.17,0000.04,0000.01
2022-01-03 05:24:00,,0828.1,5.00,0.00,24.6,23.8,00.0,33.6,26.3,08.1,0000.0,0000.19,0000.05,0000.01
2022-01-03 05:25:00,,0828.2,5.01,0.00,24.6,23.8,00.0,33.6,26.3,07.8,0000.0,0000.19,0000.05,0000.01
2022-01-03 05:26:00,,0828.2,4.99,0.00,24.6,23.8,00.0,33.6,26.4,07.2,0000.0,0000.17,0000.05,0000.01
2022-01-03 05:27:00,,0828.1,5.01,0.00,24.6,23.8,00.0,33.6,26.3,07.6,0000.0,0000.16,0000.04,0000.01
2022-01-03 05:28:00,,0828.1,4.99,0.00,24.6,23.8,00.0,33.6,26.3,07.8,0000.0,0000.05,0000.03,0000.01
2022-01-03 05:29:00,,0828.2,4.99,0.00,24.6,23.8,00.0,33.6,26.3,07.5,0000.0,0000.04,0000.03,0000.01
2022-01-03 05:30:00,,0828.2,5.01,0.00,24.6,23.8,00.0,33.6,26.3,08.2,0000.0,0000.03,0000.02,0000.00
2022-01-03 05:31:00,,0828.2,5.00,0.00,24.6,23.7,00.0,33.6,26.2,08.4,0000.0,0000.03,0000.02,0000.00
2022-01-03 05:32:00,,0828.1,4.99,0.00,24.5,23.7,00.0,33.6,26.2,08.6,0000.0,0000.05,0000.03,0000.00
2022-01-03 05:33:00,,0828.2,5.00,0.00,24.5,23.7,00.0,33.6,26.2,08.3,0000.0,0000.15,0000.04,0000.01
2022-01-03 05:34:00,,0828.2,5.00,0.00,24.5,23.7,00.0,33.6,26.2,07.8,0000.0,0000.18,0000.03,0000.01
2022-01-03 05:35:00,,0828.2,5.00,0.00,24.5,23.7,00.0,33.5,26.2,07.5,0000.0,0000.16,0000.02,0000.00
2022-01-03 05:36:00,,0828.2,4.99,0.00,24.5,23.7,00.0,33.5,26.3,07.4,0000.0,0000.20,0000.03,0000.00
2022-01-03 05:37:00,,0828.2,5.00,0.00,24.5,23.7,00.0,33.5,26.3,07.5,0000.0,0000.20,0000.03,0000.00
2022-01-03 05:38:00,,0828.2,5.00,0.00,24.5,23.7,00.0,33.5,26.2,08.2,0000.0,0000.20,0000.03,0000.00
2022-01-03 05:39:00,,0828.3,4.99,0.00,24.4,23.6,00.0,33.5,26.1,08.5,0000.0,0000.20,0000.03,0000.00
2022-01-03 05:40:00,,0828.3,5.01,0.00,24.4,23.5,00.0,33.5,26.0,08.4,0000.0,0000.20,0000.03,0000.00
2022-01-03 05:41:00,,0828.2,4.99,0.00,24.3,23.3,00.0,33.5,25.8,08.4,0000.0,0000.20,0000.03,0000.00
2022-01-03 05:42:00,,0828.2,5.02,0.00,24.2,23.1,00.0,33.4,25.6,08.8,0000.0,0000.21,0000.04,0000.00
2022-01-03 05:43:00,,0828.2,4.99,0.00,24.1,23.0,00.0,33.4,25.6,08.5,0000.0,0000.23,0000.05,0000.00
2022-01-03 05:44:00,,0828.2,4.99,0.00,24.1,23.0,00.0,33.4,25.6,08.5,0000.0,0000.95,0000.04,0000.00
2022-01-03 05:45:00,,0828.2,5.02,0.00,24.1,23.0,00.0,33.3,25.6,08.7,0000.0,0001.91,0000.04,0000.00
2022-01-03 05:46:00,,0828.4,4.99,0.00,24.0,23.0,00.0,33.3,25.5,09.0,0000.0,0001.91,0000.03,0000.00
2022-01-03 05:47:00,,0828.2,5.01,0.00,24.0,22.9,00.0,33.3,25.5,09.1,0000.0,0001.87,0000.02,0000.00
2022-01-03 05:48:00,,0828.3,5.00,0.00,23.9,22.8,00.0,33.2,25.5,09.2,0000.0,0001.87,0000.02,0000.00
2022-01-03 05:49:00,,0828.2,4.99,0.00,23.9,22.8,00.0,33.2,25.4,09.2,0000.0,0001.87,0000.03,0000.01
2022-01-03 05:50:00,,0828.2,5.01,0.00,23.8,22.8,00.0,33.1,25.4,09.2,0000.0,0001.88,0000.03,0000.01
2022-01-03 05:51:00,,0828.2,5.00,0.00,23.8,22.7,00.0,33.1,25.4,09.3,0000.0,0001.88,0000.03,0000.01
2022-01-03 05:52:00,,0828.1,5.00,0.00,23.8,22.7,00.0,33.1,25.4,09.4,0000.0,0001.89,0000.03,0000.01
2022-01-03 05:53:00,,0828.3,5.00,0.00,23.8,22.8,00.0,33.0,25.4,09.4,0000.0,0001.87,0000.03,0000.01
2022-01-03 05:54:00,,0828.3,5.01,0.00,23.8,22.8,00.0,33.0,25.4,09.5,0000.0,0001.88,0000.02,0000.01
2022-01-03 05:55:00,,0828.2,4.99,0.00,23.8,22.9,00.0,33.0,25.5,09.4,0000.0,0000.98,0000.03,0000.01
2022-01-03 05:56:00,,0828.3,5.01,0.00,23.8,22.9,00.0,33.0,25.5,09.3,0000.0,0000.08,0000.03,0000.01
2022-01-03 05:57:00,,0828.3,4.99,0.00,23.8,22.9,00.0,33.0,25.5,09.2,0000.0,0000.12,0000.04,0000.01
2022-01-03 05:58:00,,0828.3,5.01,0.00,23.8,23.0,00.0,32.9,25.5,09.1,0000.0,0000.12,0000.04,0000.01
2022-01-03 05:59:00,,0828.3,5.00,0.00,23.8,23.0,00.0,32.9,25.5,08.6,0000.0,0000.12,0000.04,0000.01
